DYE649B LIMJ-LIEE

Flight info

Callsign DYE649B
Flight time 1h 0m
Altitude 31000
Route UNITA L50 TIDKA DCT BAKRO DCT ELB DCT TINTO DCT APSUX DCT PIDUL DCT GITRI DCT VEKET DCT RAMEN DCT KOVAS
Aircraft A320/M-SDE3FGHIRWY/LB1

Departure

Time 2026-04-28 19:18
Airport Genoa Cristoforo Colombo Airport (LIMJ)

Arrival

Time 2026-04-28 20:19
Airport Cagliari Elmas Airport (LIEE)
Time Latitude Longitude Altitude Speed Heading
2026-04-28 18:49 44.41421 8.85035 66 ft 0 kts 16°
2026-04-28 19:03 44.41417 8.85033 66 ft 2 kts 16°
2026-04-28 19:03 44.41400 8.85026 0 ft 3 kts 16°
2026-04-28 19:04 44.41383 8.85019 20 ft 3 kts 16°
2026-04-28 19:04 44.41372 8.85015 19 ft 3 kts 25°
2026-04-28 19:04 44.41357 8.85000 23 ft 3 kts 63°
2026-04-28 19:04 44.41352 8.84974 18 ft 3 kts 102°
2026-04-28 19:05 44.41354 8.84966 18 ft 0 kts 105°
2026-04-28 19:12 44.41353 8.84969 18 ft 1 kts 105°
2026-04-28 19:12 44.41352 8.84977 18 ft 2 kts 105°
2026-04-28 19:12 44.41346 8.85005 18 ft 4 kts 105°
2026-04-28 19:13 44.41337 8.85052 18 ft 6 kts 105°
2026-04-28 19:13 44.41324 8.85120 18 ft 8 kts 105°
2026-04-28 19:13 44.41308 8.85203 20 ft 10 kts 105°
2026-04-28 19:13 44.41268 8.85278 18 ft 6 kts 143°
2026-04-28 19:14 44.41218 8.85283 18 ft 8 kts 196°
2026-04-28 19:14 44.41161 8.85260 17 ft 11 kts 196°
2026-04-28 19:14 44.41080 8.85227 14 ft 12 kts 197°
2026-04-28 19:14 44.41018 8.85179 13 ft 10 kts 169°
2026-04-28 19:15 44.40982 8.85270 14 ft 11 kts 103°
2026-04-28 19:15 44.40972 8.85337 16 ft 10 kts 102°
2026-04-28 19:15 44.40954 8.85434 17 ft 10 kts 106°
2026-04-28 19:15 44.40940 8.85503 18 ft 11 kts 105°
2026-04-28 19:16 44.40911 8.85648 20 ft 12 kts 106°
2026-04-28 19:16 44.40888 8.85759 22 ft 12 kts 105°
2026-04-28 19:16 44.40874 8.85885 21 ft 14 kts 102°
2026-04-28 19:16 44.40863 8.85990 21 ft 8 kts 79°
2026-04-28 19:17 44.40854 8.86035 22 ft 3 kts 207°
2026-04-28 19:17 44.40843 8.85984 23 ft 7 kts 279°
2026-04-28 19:17 44.40856 8.85902 23 ft 10 kts 284°
2026-04-28 19:17 44.40913 8.85612 20 ft 62 kts 285°
2026-04-28 19:18 44.41103 8.84653 19 ft 123 kts 285°
2026-04-28 19:18 44.41287 8.83742 23 ft 153 kts 286°
2026-04-28 19:18 44.41662 8.81727 579 ft 162 kts 283°
2026-04-28 19:18 44.41927 8.80197 1156 ft 162 kts 283°
2026-04-28 19:19 44.42122 8.79142 1556 ft 163 kts 284°
2026-04-28 19:19 44.42220 8.77481 1965 ft 176 kts 255°
2026-04-28 19:19 44.41581 8.75964 2338 ft 187 kts 218°
2026-04-28 19:19 44.40400 8.75259 2878 ft 188 kts 183°
2026-04-28 19:20 44.39046 8.75640 3318 ft 203 kts 152°
2026-04-28 19:20 44.37772 8.76807 3569 ft 228 kts 146°
2026-04-28 19:20 44.36383 8.78147 3963 ft 252 kts 146°
2026-04-28 19:20 44.34905 8.79583 4636 ft 263 kts 146°
2026-04-28 19:21 44.33205 8.81234 5589 ft 268 kts 146°
2026-04-28 19:21 44.31667 8.82721 6464 ft 272 kts 146°
2026-04-28 19:21 44.29983 8.84342 7345 ft 276 kts 146°
2026-04-28 19:21 44.28951 8.85335 7883 ft 278 kts 145°
2026-04-28 19:22 44.27266 8.86960 8714 ft 282 kts 145°
2026-04-28 19:22 44.26190 8.87996 9240 ft 285 kts 145°
2026-04-28 19:22 44.23958 8.90141 10255 ft 292 kts 145°
2026-04-28 19:22 44.22241 8.91788 10534 ft 314 kts 145°
2026-04-28 19:23 44.20241 8.93706 10728 ft 338 kts 145°
2026-04-28 19:23 44.18283 8.95577 10843 ft 360 kts 146°
2026-04-28 19:23 44.16147 8.97611 11234 ft 372 kts 146°
2026-04-28 19:23 44.13997 8.99657 11829 ft 377 kts 146°
2026-04-28 19:24 44.11786 9.01761 12467 ft 381 kts 146°
2026-04-28 19:24 44.09419 9.04015 13154 ft 385 kts 146°
2026-04-28 19:24 44.07253 9.06078 13734 ft 389 kts 146°
2026-04-28 19:24 44.05014 9.08210 13990 ft 391 kts 146°
2026-04-28 19:25 44.02627 9.10487 14074 ft 393 kts 146°
2026-04-28 19:25 44.00416 9.12590 14595 ft 396 kts 146°
2026-04-28 19:25 43.98154 9.14739 15160 ft 399 kts 146°
2026-04-28 19:25 43.95813 9.16959 15694 ft 402 kts 146°
2026-04-28 19:26 43.93460 9.19186 16230 ft 405 kts 146°
2026-04-28 19:26 43.91124 9.21390 16742 ft 409 kts 146°
2026-04-28 19:26 43.89562 9.22862 17095 ft 411 kts 146°
2026-04-28 19:26 43.87027 9.25252 17667 ft 415 kts 146°
2026-04-28 19:27 43.84586 9.27557 18205 ft 419 kts 146°
2026-04-28 19:27 43.82130 9.29876 18691 ft 422 kts 146°
2026-04-28 19:27 43.79690 9.32178 19165 ft 425 kts 147°
2026-04-28 19:27 43.77225 9.34496 19648 ft 428 kts 147°
2026-04-28 19:28 43.74726 9.36839 20134 ft 431 kts 147°
2026-04-28 19:28 43.72206 9.39200 20606 ft 434 kts 147°
2026-04-28 19:28 43.69695 9.41550 21059 ft 436 kts 147°
2026-04-28 19:28 43.67138 9.43941 21501 ft 439 kts 147°
2026-04-28 19:29 43.64592 9.46322 21926 ft 442 kts 147°
2026-04-28 19:29 43.62879 9.47923 22201 ft 443 kts 147°
2026-04-28 19:29 43.59419 9.51159 22748 ft 447 kts 147°
2026-04-28 19:29 43.56834 9.53573 23145 ft 449 kts 147°
2026-04-28 19:30 43.54204 9.56028 23545 ft 452 kts 147°
2026-04-28 19:30 43.51584 9.58467 23878 ft 454 kts 147°
2026-04-28 19:30 43.48925 9.60939 24206 ft 456 kts 147°
2026-04-28 19:30 43.46299 9.63377 24543 ft 458 kts 147°
2026-04-28 19:31 43.43647 9.65838 24886 ft 460 kts 147°
2026-04-28 19:31 43.40992 9.68297 25210 ft 462 kts 147°
2026-04-28 19:31 43.38286 9.70800 25553 ft 464 kts 147°
2026-04-28 19:31 43.35591 9.73290 25879 ft 466 kts 147°
2026-04-28 19:32 43.32902 9.75766 26345 ft 465 kts 147°
2026-04-28 19:32 43.30145 9.78304 26827 ft 464 kts 147°
2026-04-28 19:32 43.27341 9.80889 27015 ft 464 kts 147°
2026-04-28 19:32 43.24703 9.83320 27053 ft 471 kts 147°
2026-04-28 19:33 43.21959 9.85848 27050 ft 473 kts 147°
2026-04-28 19:33 43.19206 9.88395 27049 ft 474 kts 145°
2026-04-28 19:33 43.17298 9.90433 27049 ft 474 kts 141°
2026-04-28 19:33 43.14429 9.93659 27050 ft 474 kts 141°
2026-04-28 19:34 43.11938 9.96451 27052 ft 474 kts 141°
2026-04-28 19:34 43.09486 9.99194 27050 ft 474 kts 141°
2026-04-28 19:34 43.06768 10.02228 27049 ft 475 kts 141°
2026-04-28 19:34 43.04103 10.05200 27267 ft 479 kts 141°
2026-04-28 19:35 43.01505 10.08099 27669 ft 479 kts 141°
2026-04-28 19:35 42.98871 10.11036 28141 ft 478 kts 141°
2026-04-28 19:35 42.96276 10.13924 28611 ft 477 kts 141°
2026-04-28 19:35 42.93676 10.16809 29095 ft 476 kts 141°
2026-04-28 19:36 42.91046 10.19721 29580 ft 475 kts 141°
2026-04-28 19:36 42.88373 10.22678 30092 ft 474 kts 141°
2026-04-28 19:36 42.85890 10.25425 30365 ft 473 kts 141°
2026-04-28 19:36 42.83235 10.28360 30621 ft 473 kts 141°
2026-04-28 19:37 42.81522 10.30254 30783 ft 472 kts 141°
2026-04-28 19:37 42.79722 10.32243 30943 ft 472 kts 141°
2026-04-28 19:37 42.76203 10.36124 31062 ft 472 kts 141°
2026-04-28 19:37 42.73562 10.38767 31060 ft 471 kts 148°
2026-04-28 19:38 42.67664 10.42536 31061 ft 470 kts 159°
2026-04-28 19:38 42.61539 10.45875 31064 ft 470 kts 159°
2026-04-28 19:39 42.55257 10.49296 31066 ft 468 kts 159°
2026-04-28 19:39 42.52154 10.50988 31064 ft 451 kts 159°
2026-04-28 19:39 42.49268 10.52561 31064 ft 440 kts 159°
2026-04-28 19:40 42.43426 10.55738 31068 ft 434 kts 159°
2026-04-28 19:40 42.37823 10.58767 31068 ft 434 kts 159°
2026-04-28 19:41 42.32980 10.61382 31058 ft 434 kts 159°
2026-04-28 19:41 42.27327 10.64433 31062 ft 434 kts 159°
2026-04-28 19:42 42.21511 10.67576 31066 ft 434 kts 159°
2026-04-28 19:42 42.16600 10.70219 31064 ft 434 kts 159°
2026-04-28 19:43 42.10018 10.73757 31060 ft 434 kts 159°
2026-04-28 19:43 42.04243 10.76848 31059 ft 434 kts 160°
2026-04-28 19:44 41.99199 10.79546 31058 ft 434 kts 160°
2026-04-28 19:44 41.93728 10.82469 31062 ft 434 kts 160°
2026-04-28 19:45 41.88118 10.85456 31067 ft 434 kts 160°
2026-04-28 19:45 41.82457 10.88469 31063 ft 434 kts 160°
2026-04-28 19:46 41.76765 10.91493 31066 ft 433 kts 160°
2026-04-28 19:46 41.71025 10.94534 31067 ft 433 kts 160°
2026-04-28 19:47 41.65348 10.97532 31065 ft 433 kts 160°
2026-04-28 19:47 41.59622 11.00549 31065 ft 433 kts 160°
2026-04-28 19:48 41.54674 11.02609 31068 ft 430 kts 174°
2026-04-28 19:48 41.51604 11.02791 31065 ft 426 kts 186°
2026-04-28 19:48 41.48652 11.02134 31063 ft 423 kts 198°
2026-04-28 19:49 41.45874 11.00687 31060 ft 420 kts 210°
2026-04-28 19:49 41.43333 10.98491 31056 ft 418 kts 221°
2026-04-28 19:49 41.41152 10.95617 31054 ft 416 kts 232°
2026-04-28 19:49 41.39448 10.92770 31050 ft 416 kts 232°
2026-04-28 19:50 41.35554 10.86942 31070 ft 425 kts 221°
2026-04-28 19:50 41.33159 10.84299 31064 ft 436 kts 220°
2026-04-28 19:51 41.28284 10.78996 31065 ft 451 kts 220°
2026-04-28 19:51 41.23335 10.73670 31063 ft 454 kts 220°
2026-04-28 19:52 41.18308 10.68246 31064 ft 454 kts 220°
2026-04-28 19:52 41.13386 10.62932 31061 ft 454 kts 220°
2026-04-28 19:53 41.09302 10.58520 31063 ft 454 kts 220°
2026-04-28 19:53 41.04287 10.53119 31058 ft 454 kts 220°
2026-04-28 19:54 40.99380 10.47847 31061 ft 454 kts 220°
2026-04-28 19:54 40.94357 10.42476 31065 ft 453 kts 220°
2026-04-28 19:55 40.89398 10.37177 31059 ft 453 kts 220°
2026-04-28 19:55 40.84467 10.31910 31055 ft 453 kts 220°
2026-04-28 19:56 40.79296 10.26400 31056 ft 452 kts 220°
2026-04-28 19:56 40.74336 10.21144 31055 ft 452 kts 219°
2026-04-28 19:57 40.69427 10.15942 31054 ft 452 kts 220°
2026-04-28 19:57 40.65248 10.11514 31053 ft 451 kts 220°
2026-04-28 19:58 40.60332 10.06311 30714 ft 452 kts 219°
2026-04-28 19:58 40.57810 10.03646 30466 ft 452 kts 219°
2026-04-28 19:58 40.55257 10.00950 30214 ft 453 kts 219°
2026-04-28 19:58 40.52776 9.98336 29943 ft 454 kts 219°
2026-04-28 19:59 40.50247 9.95677 29656 ft 454 kts 219°
2026-04-28 19:59 40.47764 9.93069 29374 ft 455 kts 219°
2026-04-28 19:59 40.45287 9.90471 29092 ft 456 kts 219°
2026-04-28 19:59 40.42702 9.87760 28809 ft 457 kts 219°
2026-04-28 20:00 40.40164 9.85098 28533 ft 458 kts 219°
2026-04-28 20:00 40.37541 9.82353 28249 ft 458 kts 219°
2026-04-28 20:00 40.34954 9.79649 27972 ft 459 kts 219°
2026-04-28 20:00 40.34224 9.78887 27892 ft 459 kts 219°
2026-04-28 20:01 40.30739 9.75250 27529 ft 460 kts 219°
2026-04-28 20:01 40.28186 9.72591 27255 ft 460 kts 219°
2026-04-28 20:01 40.25628 9.69927 27002 ft 461 kts 219°
2026-04-28 20:01 40.23093 9.67284 26118 ft 461 kts 219°
2026-04-28 20:02 40.20483 9.64566 24892 ft 466 kts 219°
2026-04-28 20:02 40.17945 9.61930 23746 ft 470 kts 219°
2026-04-28 20:02 40.15340 9.59226 22590 ft 470 kts 219°
2026-04-28 20:02 40.12739 9.56530 21675 ft 462 kts 219°
2026-04-28 20:03 40.09905 9.53592 20722 ft 455 kts 219°
2026-04-28 20:03 40.07392 9.50988 19769 ft 453 kts 219°
2026-04-28 20:03 40.05078 9.48598 19142 ft 444 kts 219°
2026-04-28 20:03 40.02604 9.46048 18258 ft 440 kts 219°
2026-04-28 20:04 40.00826 9.44215 17514 ft 435 kts 219°
2026-04-28 20:04 39.97860 9.41166 16637 ft 410 kts 219°
2026-04-28 20:04 39.96259 9.39525 16459 ft 388 kts 219°
2026-04-28 20:04 39.94204 9.37416 16316 ft 358 kts 219°
2026-04-28 20:05 39.92274 9.35432 16185 ft 331 kts 219°
2026-04-28 20:05 39.90407 9.33511 15886 ft 314 kts 219°
2026-04-28 20:05 39.88542 9.31590 15406 ft 310 kts 219°
2026-04-28 20:05 39.86877 9.29875 15113 ft 307 kts 219°
2026-04-28 20:06 39.85320 9.28269 14819 ft 306 kts 219°
2026-04-28 20:06 39.84033 9.26945 14580 ft 304 kts 219°
2026-04-28 20:06 39.82270 9.25132 14236 ft 303 kts 219°
2026-04-28 20:06 39.80562 9.23382 13916 ft 301 kts 219°
2026-04-28 20:07 39.78906 9.21693 13575 ft 300 kts 219°
2026-04-28 20:07 39.77626 9.20389 13315 ft 298 kts 219°
2026-04-28 20:07 39.75504 9.18228 12962 ft 292 kts 219°
2026-04-28 20:07 39.73824 9.16517 12825 ft 283 kts 219°
2026-04-28 20:08 39.72253 9.14914 12672 ft 275 kts 219°
2026-04-28 20:08 39.70681 9.13309 12550 ft 267 kts 219°
2026-04-28 20:08 39.69619 9.12225 12457 ft 262 kts 219°
2026-04-28 20:08 39.68338 9.10920 12342 ft 255 kts 219°
2026-04-28 20:09 39.66853 9.09408 12201 ft 248 kts 219°
2026-04-28 20:09 39.65400 9.08146 12081 ft 241 kts 207°
2026-04-28 20:09 39.63894 9.07407 11932 ft 234 kts 195°
2026-04-28 20:09 39.62261 9.07115 11790 ft 222 kts 182°
2026-04-28 20:10 39.60631 9.07153 11550 ft 212 kts 181°
2026-04-28 20:10 39.59174 9.07191 11284 ft 203 kts 181°
2026-04-28 20:10 39.57685 9.07227 11085 ft 189 kts 181°
2026-04-28 20:10 39.56876 9.07246 10918 ft 185 kts 181°
2026-04-28 20:11 39.55118 9.07286 10472 ft 182 kts 184°
2026-04-28 20:11 39.53848 9.07090 10133 ft 179 kts 195°
2026-04-28 20:11 39.52967 9.06746 9887 ft 177 kts 203°
2026-04-28 20:11 39.51917 9.06087 9522 ft 175 kts 212°
2026-04-28 20:12 39.50815 9.05084 9126 ft 174 kts 217°
2026-04-28 20:12 39.49808 9.04135 8764 ft 173 kts 216°
2026-04-28 20:12 39.48824 9.03211 8308 ft 178 kts 216°
2026-04-28 20:12 39.48045 9.02477 7932 ft 182 kts 216°
2026-04-28 20:13 39.46669 9.01177 7303 ft 187 kts 216°
2026-04-28 20:13 39.45636 9.00206 6848 ft 190 kts 216°
2026-04-28 20:13 39.44560 8.99196 6349 ft 192 kts 215°
2026-04-28 20:13 39.43463 8.98168 5832 ft 193 kts 215°
2026-04-28 20:14 39.42356 8.97132 5308 ft 192 kts 214°
2026-04-28 20:14 39.41291 8.96133 4824 ft 187 kts 214°
2026-04-28 20:14 39.40558 8.95444 4472 ft 187 kts 213°
2026-04-28 20:14 39.39146 8.94114 3808 ft 187 kts 212°
2026-04-28 20:15 39.38411 8.93420 3472 ft 186 kts 212°
2026-04-28 20:15 39.37335 8.92671 3112 ft 175 kts 187°
2026-04-28 20:15 39.36149 8.92817 2818 ft 161 kts 153°
2026-04-28 20:15 39.35284 8.93646 2582 ft 156 kts 137°
2026-04-28 20:16 39.34468 8.94595 2352 ft 150 kts 137°
2026-04-28 20:16 39.33716 8.95469 2129 ft 143 kts 136°
2026-04-28 20:16 39.32961 8.96347 1919 ft 141 kts 136°
2026-04-28 20:16 39.32223 8.97204 1709 ft 141 kts 136°
2026-04-28 20:17 39.31493 8.98050 1515 ft 139 kts 136°
2026-04-28 20:17 39.30745 8.98916 1319 ft 137 kts 137°
2026-04-28 20:17 39.30013 8.99764 1117 ft 137 kts 138°
2026-04-28 20:17 39.29311 9.00576 928 ft 137 kts 139°
2026-04-28 20:18 39.28568 9.01439 738 ft 138 kts 140°
2026-04-28 20:18 39.28050 9.02042 604 ft 138 kts 140°
2026-04-28 20:18 39.27135 9.03111 376 ft 137 kts 140°
2026-04-28 20:18 39.26415 9.03954 152 ft 136 kts 140°
2026-04-28 20:19 39.25716 9.04771 30 ft 130 kts 141°
2026-04-28 20:19 39.25133 9.05442 17 ft 85 kts 138°
2026-04-28 20:19 39.24820 9.05808 18 ft 37 kts 138°
2026-04-28 20:19 39.24713 9.05936 16 ft 26 kts 134°
2026-04-28 20:20 39.24698 9.06079 16 ft 17 kts 63°
2026-04-28 20:20 39.24743 9.06159 16 ft 7 kts
2026-04-28 20:20 39.24782 9.06129 16 ft 8 kts 317°
2026-04-28 20:20 39.24828 9.06075 16 ft 10 kts 317°
2026-04-28 20:21 39.24886 9.06007 16 ft 12 kts 318°
2026-04-28 20:21 39.24954 9.05928 17 ft 14 kts 317°
2026-04-28 20:21 39.25038 9.05832 17 ft 17 kts 319°
2026-04-28 20:21 39.25105 9.05776 17 ft 11 kts
2026-04-28 20:22 39.25160 9.05847 17 ft 9 kts 61°
2026-04-28 20:22 39.25166 9.05939 18 ft 11 kts 72°
2026-04-28 20:22 39.25194 9.06005 18 ft 5 kts 59°
2026-04-28 20:22 39.25185 9.06050 18 ft 6 kts 136°
2026-04-28 20:23 39.25164 9.06075 17 ft 0 kts 138°